FW2916 Weather Reports


Display with metric or nautical units.
time (UTC)temp
F
wind
direction
speed
MPH
gust
MPH
rain 1hr
in
rain 24hr
in
rain mn
in
humidity
%
barometer
mb
20260506061534 46 0 0.0 3.0 0.00 0.87 0.00 85 1015.5
20260506044548 48 317 2.0 7.0 0.00 0.90 0.90 83 1014.7
20260506043036 48 0 0.0 0.0 0.00 0.90 0.90 96 1014.4
20260506041547 48 0 0.0 0.0 0.00 0.90 0.90 96 1014.2
20260506040039 48 0 0.0 0.0 0.00 0.90 0.90 96 1013.8
20260506034544 48 0 0.0 1.0 0.00 0.90 0.90 96 1014.1
20260506033042 47 0 0.0 1.0 0.00 0.90 0.90 95 1013.8
20260506031536 48 0 0.0 1.0 0.00 0.90 0.90 95 1013.6
20260506030035 48 155 0.0 0.0 0.00 0.90 0.90 95 1013.4
20260506024540 48 151 0.0 1.0 0.00 0.90 0.90 95 1013.0
20260506023041 48 0 0.0 0.0 0.00 0.90 0.90 94 1012.8
20260506021546 47 0 0.0 1.0 0.00 0.90 0.90 94 1012.7
20260506020034 47 0 0.0 0.0 0.00 0.90 0.90 92 1012.4
20260506014541 48 0 0.0 0.0 0.00 0.90 0.90 91 1012.2
20260506013046 49 0 0.0 0.0 0.00 0.90 0.90 90 1012.1
20260506011559 50 0 0.0 0.0 0.01 0.90 0.90 89 1012.0
20260506010035 50 0 0.0 0.0 0.01 0.90 0.90 88 1011.8
20260506004541 51 0 0.0 0.0 0.01 0.90 0.90 87 1011.6
20260506003042 51 0 0.0 0.0 0.01 0.90 0.90 85 1012.0
20260506001542 52 0 0.0 0.0 0.00 0.89 0.89 83 1011.5
20260506000048 52 0 0.0 1.0 0.00 0.89 0.89 83 1011.6
20260505234535 51 115 0.0 2.0 0.00 0.89 0.89 83 1011.2
20260505233043 51 115 0.0 1.0 0.00 0.89 0.89 85 1011.4
20260505231543 51 0 0.0 1.0 0.00 0.89 0.89 84 1012.0
20260505230040 51 0 0.0 0.0 0.00 0.89 0.89 83 1011.9
20260505224544 52 0 0.0 0.0 0.00 0.89 0.89 84 1011.5
20260505223041 52 0 0.0 0.0 0.00 0.89 0.89 83 1011.7
20260505221549 51 0 0.0 2.0 0.00 0.89 0.89 83 1011.7
20260505220054 51 86 0.0 2.0 0.00 0.89 0.89 84 1011.6
20260505214537 51 51 0.0 1.0 0.00 0.89 0.89 84 1011.6
20260505213044 51 49 0.0 3.0 0.00 0.89 0.89 87 1011.6
20260505211542 50 33 0.0 1.0 0.00 0.89 0.89 88 1011.8
20260505210047 50 0 0.0 2.0 0.00 0.89 0.89 90 1012.2
20260505204550 49 23 0.0 2.0 0.00 0.89 0.89 88 1012.0
20260505203036 49 21 1.0 4.0 0.01 0.89 0.89 86 1012.2
20260505201540 50 39 0.0 1.0 0.01 0.89 0.89 90 1012.1
20260505200035 49 0 0.0 1.0 0.01 0.89 0.89 90 1012.0
20260505194536 48 121 0.0 1.0 0.01 0.89 0.89 88 1011.5
20260505193040 48 0 0.0 2.0 0.00 0.88 0.88 88 1012.0
20260505191540 48 0 0.0 1.0 0.00 0.88 0.88 88 1012.2
20260505190037 48 122 0.0 3.0 0.00 0.88 0.88 88 1012.1
20260505184535 48 0 0.0 4.0 0.00 0.88 0.88 89 1012.2
20260505183049 48 0 0.0 2.0 0.00 0.88 0.88 90 1012.5
20260505181541 48 0 0.0 3.0 0.01 0.88 0.88 90 1012.9
20260505180041 48 69 0.0 1.0 0.01 0.88 0.88 92 1012.9
20260505174535 47 19 0.0 3.0 0.02 0.88 0.88 91 1013.1
20260505173035 47 0 0.0 6.0 0.07 0.88 0.88 92 1012.9
20260505171540 47 120 2.0 4.0 0.08 0.87 0.87 91 1012.3
20260505170042 47 0 1.0 5.0 0.08 0.87 0.87 92 1012.7
20260505164553 46 125 1.0 6.0 0.08 0.86 0.86 92 1012.7
20260505163036 47 34 0.0 5.0 0.03 0.81 0.81 92 1012.6
20260505161547 47 0 0.0 3.0 0.01 0.79 0.79 91 1013.2
20260505153045 48 32 0.0 4.0 0.01 0.78 0.78 90 1012.5
20260505151535 48 25 2.0 5.0 0.03 0.78 0.78 91 1012.0
20260505124555 49 37 0.0 3.0 0.01 0.67 0.67 87 1009.8
20260505123044 48 67 1.0 3.0 0.01 0.67 0.67 86 1009.5
20260505121542 49 25 0.0 3.0 0.01 0.66 0.66 83 1009.7
20260505120049 49 135 1.0 5.0 0.01 0.66 0.66 84 1009.5
20260505114542 48 34 1.0 3.0 0.01 0.66 0.66 87 1009.1
20260505113035 48 0 0.0 1.0 0.02 0.66 0.66 89 1009.8
20260505111535 48 260 0.0 2.0 0.01 0.65 0.65 89 1009.3
20260505101536 49 29 2.0 5.0 0.00 0.64 0.64 85 1009.1
20260505100036 49 26 1.0 7.0 0.00 0.64 0.64 85 1009.1
20260505094542 48 17 3.0 7.0 0.00 0.64 0.64 85 1008.9
20260505093043 48 22 1.0 5.0 0.00 0.64 0.64 87 1008.9
20260505091540 48 37 2.0 7.0 0.01 0.64 0.64 87 1008.0
20260505090042 48 340 3.0 8.0 0.07 0.64 0.64 89 1008.1
20260505084544 48 29 3.0 9.0 0.12 0.64 0.64 91 1007.1
20260505083044 48 37 3.0 9.0 0.20 0.64 0.64 90 1005.7
20260505081548 49 59 1.0 5.0 0.25 0.63 0.63 90 1005.6
20260505080041 49 30 1.0 5.0 0.20 0.57 0.57 90 1008.6
20260505074542 50 39 1.0 4.0 0.15 0.51 0.51 90 1009.3
20260505073040 51 319 1.0 3.0 0.10 0.43 0.43 89 1009.4
20260505071536 53 0 0.0 6.0 0.15 0.38 0.38 89 1008.7
20260505070043 54 41 2.0 6.0 0.34 0.37 0.37 87 1007.0